NOS179 LCLK-EFHK

Flight info

Callsign NOS179
Flight time N/A
Altitude 34000
Route PHA M31 GENOS DCT PEDER M855 TOMBI UM855 AYT UQ23 OSVEL UL619 MAKOL DCT ARGES DCT KENIN/N0465F360 DCT TOXAR/N0469F350 DCT BOKSU DCT GUNTA DCT KEMET Q11 INTOR
Aircraft B738/M-SDE2E3FGHIRWXY/LB1

Departure

Time N/A
Airport Larnaca International Airport (LCLK)

Arrival

Time 2026-04-26 14:55
Airport Helsinki Vantaa Airport (EFHK)
Time Latitude Longitude Altitude Speed Heading
2026-04-26 14:31 58.97458 24.67774 32638 ft 426 kts
2026-04-26 14:32 59.00329 24.68812 31944 ft 429 kts
2026-04-26 14:32 59.03266 24.69876 31258 ft 429 kts
2026-04-26 14:32 59.06177 24.70940 30974 ft 418 kts
2026-04-26 14:32 59.08986 24.71974 30515 ft 414 kts
2026-04-26 14:33 59.11763 24.72994 29688 ft 411 kts
2026-04-26 14:33 59.14576 24.74024 28547 ft 415 kts
2026-04-26 14:33 59.17401 24.75054 27307 ft 419 kts
2026-04-26 14:33 59.20279 24.76104 26013 ft 423 kts
2026-04-26 14:34 59.23114 24.77143 24883 ft 420 kts
2026-04-26 14:34 59.26023 24.78213 23862 ft 430 kts
2026-04-26 14:34 59.28910 24.79278 23151 ft 426 kts
2026-04-26 14:34 59.31801 24.80351 22441 ft 422 kts
2026-04-26 14:35 59.34647 24.81410 21738 ft 418 kts
2026-04-26 14:35 59.37484 24.82479 21026 ft 414 kts 10°
2026-04-26 14:35 59.40269 24.83751 20256 ft 413 kts 14°
2026-04-26 14:35 59.43005 24.85440 19542 ft 410 kts 18°
2026-04-26 14:36 59.45618 24.87376 18993 ft 403 kts 20°
2026-04-26 14:36 59.48177 24.89447 18709 ft 390 kts 21°
2026-04-26 14:36 59.50644 24.91520 18032 ft 390 kts 21°
2026-04-26 14:36 59.53083 24.93600 17711 ft 377 kts 21°
2026-04-26 14:37 59.55416 24.95595 17461 ft 364 kts 21°
2026-04-26 14:37 59.57720 24.97556 17095 ft 355 kts 21°
2026-04-26 14:37 59.59964 24.99453 16569 ft 350 kts 21°
2026-04-26 14:37 59.62159 25.01297 16041 ft 346 kts 21°
2026-04-26 14:38 59.64357 25.03140 15466 ft 335 kts 21°
2026-04-26 14:38 59.66423 25.04874 14904 ft 322 kts 21°
2026-04-26 14:38 59.68437 25.06564 14251 ft 313 kts 21°
2026-04-26 14:38 59.69779 25.07689 13819 ft 307 kts 20°
2026-04-26 14:39 59.72348 25.09826 12950 ft 298 kts 20°
2026-04-26 14:39 59.74221 25.11388 12377 ft 288 kts 20°
2026-04-26 14:39 59.76041 25.12914 12020 ft 285 kts 20°
2026-04-26 14:39 59.77811 25.14409 11904 ft 275 kts 20°
2026-04-26 14:40 59.79565 25.15898 11834 ft 272 kts 20°
2026-04-26 14:40 59.81296 25.17363 11412 ft 271 kts 20°
2026-04-26 14:40 59.83013 25.18816 11004 ft 270 kts 19°
2026-04-26 14:40 59.84723 25.20271 10658 ft 265 kts 20°
2026-04-26 14:41 59.86379 25.21682 10474 ft 256 kts 19°
2026-04-26 14:41 59.87981 25.23046 10184 ft 251 kts 19°
2026-04-26 14:41 59.89574 25.24394 9810 ft 249 kts 19°
2026-04-26 14:41 59.91176 25.25758 9385 ft 250 kts 21°
2026-04-26 14:42 59.92587 25.27753 8958 ft 257 kts 41°
2026-04-26 14:42 59.93691 25.30623 8541 ft 261 kts 49°
2026-04-26 14:42 59.94682 25.33617 8123 ft 262 kts 50°
2026-04-26 14:42 59.95656 25.36648 7671 ft 256 kts 50°
2026-04-26 14:43 59.96584 25.39588 7260 ft 248 kts 50°
2026-04-26 14:43 59.97480 25.42473 6836 ft 241 kts 50°
2026-04-26 14:43 59.98328 25.45247 6443 ft 233 kts 50°
2026-04-26 14:43 59.99148 25.47977 6024 ft 227 kts 50°
2026-04-26 14:44 59.99957 25.50682 5620 ft 229 kts 50°
2026-04-26 14:44 60.00774 25.53402 5203 ft 230 kts 50°
2026-04-26 14:44 60.01594 25.56119 4920 ft 225 kts 49°
2026-04-26 14:44 60.02643 25.58194 4920 ft 206 kts 18°
2026-04-26 14:45 60.03976 25.58370 4922 ft 193 kts 342°
2026-04-26 14:45 60.04783 25.57582 4921 ft 195 kts 332°
2026-04-26 14:45 60.06270 25.55640 4702 ft 190 kts 330°
2026-04-26 14:45 60.07364 25.54184 4317 ft 192 kts 330°
2026-04-26 14:46 60.08493 25.52695 3955 ft 193 kts 330°
2026-04-26 14:46 60.09604 25.51227 3607 ft 193 kts 328°
2026-04-26 14:46 60.10625 25.49499 3281 ft 197 kts 316°
2026-04-26 14:46 60.11153 25.46897 2950 ft 215 kts 277°
2026-04-26 14:47 60.10724 25.43990 2947 ft 230 kts 252°
2026-04-26 14:47 60.09955 25.41098 2927 ft 234 kts 250°
2026-04-26 14:47 60.09174 25.38209 2933 ft 234 kts 250°
2026-04-26 14:47 60.08411 25.35372 2935 ft 234 kts 250°
2026-04-26 14:48 60.07634 25.32488 2941 ft 234 kts 250°
2026-04-26 14:48 60.07109 25.29568 2935 ft 215 kts 276°
2026-04-26 14:48 60.07368 25.26883 2946 ft 184 kts 299°
2026-04-26 14:48 60.07843 25.24541 2952 ft 185 kts 300°
2026-04-26 14:49 60.08367 25.22056 2947 ft 200 kts 300°
2026-04-26 14:49 60.09054 25.19681 2945 ft 194 kts 321°
2026-04-26 14:49 60.10217 25.18509 2958 ft 191 kts 345°
2026-04-26 14:49 60.11482 25.17785 2949 ft 189 kts 342°
2026-04-26 14:50 60.12719 25.16852 2951 ft 190 kts 339°
2026-04-26 14:50 60.13924 25.15784 2950 ft 190 kts 337°
2026-04-26 14:50 60.15126 25.14646 2955 ft 192 kts 336°
2026-04-26 14:50 60.16307 25.13489 2951 ft 182 kts 336°
2026-04-26 14:51 60.17377 25.12417 2954 ft 165 kts 336°
2026-04-26 14:51 60.18360 25.11421 2943 ft 148 kts 335°
2026-04-26 14:51 60.19260 25.10511 2964 ft 150 kts 336°
2026-04-26 14:51 60.20204 25.09558 2806 ft 153 kts 335°
2026-04-26 14:52 60.21161 25.08582 2518 ft 152 kts 335°
2026-04-26 14:52 60.22086 25.07634 2287 ft 151 kts 335°
2026-04-26 14:52 60.22997 25.06702 2035 ft 140 kts 335°
2026-04-26 14:52 60.23811 25.05870 1836 ft 123 kts 336°
2026-04-26 14:53 60.24544 25.05117 1602 ft 113 kts 335°
2026-04-26 14:53 60.25234 25.04416 1501 ft 113 kts 335°
2026-04-26 14:53 60.25940 25.03694 1391 ft 115 kts 335°
2026-04-26 14:53 60.26661 25.02959 1165 ft 115 kts 335°
2026-04-26 14:54 60.27367 25.02247 980 ft 115 kts 335°
2026-04-26 14:54 60.28090 25.01510 813 ft 115 kts 334°
2026-04-26 14:54 60.28817 25.00764 662 ft 118 kts 334°
2026-04-26 14:54 60.29522 25.00045 487 ft 113 kts 333°
2026-04-26 14:55 60.30228 24.99310 316 ft 118 kts 334°
2026-04-26 14:55 60.30970 24.98556 159 ft 114 kts 333°
2026-04-26 14:55 60.31324 24.98198 155 ft 24 kts 333°
2026-04-26 14:55 60.31431 24.98024 155 ft 14 kts 287°
2026-04-26 14:56 60.31421 24.97880 155 ft 8 kts 242°
2026-04-26 14:56 60.31410 24.97837 156 ft 0 kts 243°
2026-04-26 14:58 60.31409 24.97797 156 ft 7 kts 291°
2026-04-26 14:58 60.31483 24.97696 156 ft 18 kts 333°
2026-04-26 14:59 60.31629 24.97549 157 ft 27 kts 332°
2026-04-26 14:59 60.31816 24.97356 158 ft 32 kts 333°
2026-04-26 14:59 60.32010 24.97157 161 ft 27 kts 332°
2026-04-26 14:59 60.32100 24.97060 163 ft 18 kts 332°
2026-04-26 15:00 60.32211 24.96940 165 ft 11 kts 331°
2026-04-26 15:00 60.32270 24.96877 166 ft 9 kts 335°
2026-04-26 15:00 60.32304 24.96792 167 ft 7 kts 248°
2026-04-26 15:00 60.32266 24.96697 168 ft 11 kts 228°
2026-04-26 15:01 60.32196 24.96541 169 ft 18 kts 224°
2026-04-26 15:01 60.32097 24.96325 170 ft 21 kts 228°
2026-04-26 15:01 60.31999 24.96105 171 ft 20 kts 228°
2026-04-26 15:01 60.31901 24.95898 171 ft 20 kts 226°
2026-04-26 15:02 60.31805 24.95682 172 ft 19 kts 228°
2026-04-26 15:02 60.31742 24.95548 171 ft 6 kts 219°
2026-04-26 15:02 60.31696 24.95553 171 ft 8 kts 140°
2026-04-26 15:02 60.31656 24.95627 171 ft 6 kts 135°
2026-04-26 15:03 60.31623 24.95695 170 ft 6 kts 137°
2026-04-26 15:03 60.31592 24.95751 170 ft 6 kts 138°
2026-04-26 15:03 60.31570 24.95791 170 ft 3 kts 137°
2026-04-26 15:03 60.31559 24.95813 170 ft 0 kts 136°
2026-04-26 15:04 60.31550 24.95828 169 ft 1 kts 137°
2026-04-26 15:04 60.31548 24.95833 169 ft 0 kts 137°